Location: Clover
(42.5131°N, 114.6874°W)
Time: 09:18:32
(UTC+00:00)

Courier 1B - Pass Details

Date: 18 November 2024
Orbit: 962 x 1208 km, 28.3° (Epoch: 06 December)

Event Time Altitude Azimuth Distance (km) Brightness Sun altitude
Rises 00:41:47 0° 252° (WSW) 3,647 13.4 -5.5°
Reaches altitude 10° 00:46:12 10° 225° (SW) 2,684 11.1 -6.3°
Maximum altitude 00:48:46 13° 201° (SSW) 2,497 10.3 -6.7°
Drops below altitude 10° 00:51:21 10° 177° (S) 2,687 10.0 -7.2°
Sets 00:55:47 0° 149° (SSE) 3,654 10.4 -7.9°
